Vertical_Velocity
-2 -1 1 -2 1 -2 3 -0 -0 3 -0 1 0 1 -2 3 -0 -1 4 -3 -1 3 2 2 0 2 2 3 2 -0 1 0 2
3 0 -1 -2 -0 3 -1 0 -2 2 -1 -1 -1 0 -0 1 0 0 -1 -1 1 -1 4 3 -0 0 1 0 1 1 1 0 1
1 -0 2 1 -1 1 2 2 1 2 -2 1 1 0 -1 1 -0 0 -1 1 2 -1 1 0 0 -1 -1 -1 2 -1 2 0 0
1 1 -1 -0 -1 0 2 4 1 1 -1 -0 -0 -1 -1 1 1 1 0 1 -1 1 4 1 -1 2 -2 0 2 1 -0 -1 1
-0 -0 -1 0 1 -0 -0 0 -0 2 -0 1 -2 -0 -0 -2 -1 0 -2 -1 0 2 -0 -0 1 1 0 1 1 -1 1 -3 -1
-0 -1 1 2 -0 0 -0 0 0 -2 1 1 -1 0 1 -1 -0 -1 -1 -1 -1 -1 -0 0 -1 2 -1 1 0 -2 -1 1 -0
-0 1 0 1 1 1 -0 1 -1 1 1 1 -1 -1 -0 -0 0 -1 0 1 2 -2 1 -0 -2 -1 0 2 -0 2 0 -1 2
-0 1 1 1 1 -0 1 -1 0 1 1 1 -0 -1 -0 -0 -2 -1 1 0 -1 1 0 2 2 1 -3 1 0 -1 0 -0 2
0 1 -1 -0 -0 -0 1 1 2 0 0 1 -1 -1 -1 1 1 -2 1 0 -0 1 -0 3 2 3 2 -3 -0 -1 0 1 1
0 1 -0 1 -0 0 -1 -0 1 1 1 -1 -1 -0 -0 0 -1 -2 1 1 -1 -1 1 2 -1 1 -1 -0 -1 1 -0 -1 -1
1 -0 1 -0 1 1 0 -0 -0 -1 -1 -1 -1 -1 -1 -0 -0 2 -0 -0 -0 -1 -0 0 2 2 -0 -0 1 -1 -0 -0 -1
2 2 0 1 -0 1 -0 0 -1 -1 -1 -1 -0 -1 -0 -1 -1 -0 2 -1 -0 0 -1 0 1 -2 0 -0 -1 1 0 0 1
0 0 0 1 0 1 -1 -1 -1 -1 -1 -0 -0 -1 -1 -1 -0 -1 -0 3 -0 2 2 0 -1 -1 -2 -1 -1 -0 -0 -1 -1
-0 -0 0 1 1 0 -0 -1 -1 -1 -0 -0 -1 -1 -2 -1 -0 0 0 1 0 0 0 -1 -0 0 -2 -1 -1 -1 0 -0 -1
1 1 1 0 0 0 1 1 1 -0 -0 -1 -1 -1 -1 -1 -1 0 -1 -0 0 2 -1 -1 -1 1 0 -3 -3 -2 -1 -1 0
-0 0 2 2 1 0 -1 -1 -1 -1 2 1 -0 0 0 -1 -1 -1 -1 -0 -1 -0 -1 0 -0 1 -0 -0 -1 -3 -1 0 4
1 1 1 0 1 -0 2 1 0 0 -1 -0 1 -3 -1 -0 -1 -1 -1 -0 -0 -1 -1 -1 -1 1 -0 2 -1 -3 -1 3 2
0 1 1 1 0 1 1 -0 1 1 1 1 -2 -0 -1 2 0 -0 -1 -0 -1 -1 -1 0 0 0 -1 -0 -1 -4 -3 3 3
-0 1 2 1 1 1 2 1 2 -1 1 -1 1 -0 0 -1 1 -1 -1 -0 -1 -1 -1 -1 -1 -1 -1 -1 -1 -1 -1 -1 -0
-2 -2 0 2 1 1 2 2 2 2 -2 2 0 0 -0 0 0 0 2 0 1 0 -0 -1 -1 -0 -1 -1 -0 -0 -1 -2 -0
Height
3163 3164 3165 3164 3164 3164 3165 3167 3167 3167 3168 3168 3169 3169 3170 3171 3171 3172 3172 3173 3174 3174 3175 3176 3177 3178 3179 3179 3180 3180 3180 3181 3181
3162 3162 3163 3164 3163 3162 3163 3164 3166 3166 3166 3167 3168 3169 3170 3170 3171 3172 3172 3173 3174 3175 3176 3176 3177 3178 3179 3180 3180 3181 3181 3181 3181
3159 3159 3160 3161 3161 3161 3161 3162 3163 3165 3165 3166 3167 3168 3169 3170 3171 3171 3172 3173 3173 3175 3175 3176 3177 3178 3179 3180 3180 3181 3181 3180 3181
3157 3157 3157 3158 3159 3159 3159 3161 3162 3163 3164 3165 3166 3167 3168 3168 3170 3171 3171 3173 3173 3174 3175 3176 3177 3178 3179 3179 3180 3180 3180 3180 3180
3154 3154 3154 3155 3156 3157 3157 3159 3159 3161 3163 3163 3164 3166 3167 3167 3168 3169 3171 3172 3173 3174 3175 3176 3176 3177 3178 3179 3179 3179 3179 3180 3180
3151 3151 3152 3152 3153 3154 3155 3156 3158 3159 3161 3162 3162 3163 3164 3166 3167 3168 3169 3171 3172 3173 3174 3175 3176 3176 3177 3178 3178 3178 3178 3179 3179
3148 3149 3149 3150 3150 3151 3152 3154 3155 3157 3158 3159 3161 3161 3162 3164 3165 3166 3168 3169 3170 3171 3172 3173 3174 3175 3176 3176 3176 3177 3177 3178 3178
3145 3146 3147 3148 3148 3148 3150 3151 3152 3154 3156 3157 3159 3159 3160 3161 3162 3163 3165 3167 3168 3170 3170 3171 3172 3173 3174 3174 3175 3175 3176 3177 3177
3142 3143 3143 3145 3146 3146 3147 3149 3151 3152 3153 3155 3156 3157 3158 3159 3160 3161 3163 3165 3166 3167 3168 3169 3170 3171 3171 3172 3173 3174 3174 3175 3175
3140 3140 3141 3142 3143 3144 3145 3146 3147 3149 3150 3151 3152 3154 3155 3156 3158 3159 3160 3162 3164 3164 3166 3167 3168 3168 3169 3169 3171 3172 3172 3173 3173
3138 3138 3139 3139 3140 3141 3142 3144 3145 3145 3147 3148 3149 3151 3152 3153 3155 3157 3158 3159 3161 3162 3163 3165 3165 3166 3166 3167 3168 3169 3169 3170 3171
3135 3136 3136 3136 3137 3138 3139 3140 3141 3142 3144 3145 3146 3147 3149 3150 3152 3153 3155 3156 3158 3159 3161 3162 3163 3163 3164 3164 3165 3166 3167 3167 3168
3132 3132 3133 3133 3133 3134 3135 3136 3137 3139 3140 3141 3142 3144 3145 3146 3148 3149 3150 3152 3153 3155 3157 3159 3161 3161 3162 3162 3161 3163 3164 3165 3166
3128 3129 3129 3130 3130 3130 3131 3132 3133 3134 3136 3137 3138 3139 3141 3142 3143 3145 3146 3148 3149 3151 3152 3154 3157 3158 3159 3159 3159 3160 3161 3162 3163
3124 3124 3125 3126 3126 3127 3127 3128 3129 3130 3131 3132 3133 3135 3136 3137 3139 3140 3142 3143 3145 3146 3147 3149 3151 3154 3155 3156 3155 3157 3158 3159 3160
3118 3119 3120 3120 3121 3122 3122 3123 3124 3125 3127 3127 3129 3130 3131 3133 3134 3135 3137 3138 3140 3141 3142 3144 3146 3148 3150 3151 3152 3152 3154 3156 3156
3112 3113 3114 3115 3116 3116 3118 3118 3120 3121 3122 3123 3124 3125 3127 3128 3129 3131 3132 3134 3135 3137 3138 3139 3141 3143 3144 3146 3147 3148 3149 3152 3152
3105 3106 3107 3108 3110 3111 3112 3112 3113 3114 3116 3117 3119 3120 3121 3123 3124 3126 3127 3129 3130 3132 3133 3135 3136 3138 3139 3141 3142 3143 3145 3147 3149
3096 3098 3099 3100 3102 3104 3105 3106 3107 3108 3110 3110 3113 3114 3116 3117 3119 3121 3122 3123 3125 3126 3128 3129 3131 3133 3134 3135 3137 3139 3140 3142 3144
3087 3088 3090 3092 3094 3096 3097 3099 3100 3102 3103 3104 3106 3107 3109 3111 3113 3114 3116 3117 3119 3120 3122 3124 3125 3126 3128 3130 3131 3133 3134 3137 3139